GFSNIL_con_mucape_273.txt.gz
CAPE
2553 2106 1610 1167 704 256 41 203 137 216 207 176 176 291 514 531 520 264 230 147 178 334
2051 1675 1406 373 19 54 154 88 363 279 299 218 174 234 148 295 529 364 323 194 116 87
1991 1214 595 95 36 230 133 158 410 399 160 148 71 37 53 255 276 153 170 261 296 264
1883 316 232 18 26 87 284 491 226 284 78 8 8 13 54 0 0 0 0 0 78 65
1036 224 94 149 442 329 635 324 216 104 142 85 0 0 0 0 0 0 0 0 0 0
176 477 914 1071 1137 899 832 735 205 257 164 122 23 0 0 0 0 0 0 0 0 0
634 1437 1541 1222 1099 944 1109 799 578 120 204 70 84 9 9 0 0 0 0 0 0 0
838 1451 1221 1193 959 875 1003 1100 747 348 66 41 97 46 22 2 0 0 0 0 0 0
1226 1092 1188 821 870 1102 689 402 236 133 0 0 6 0 1 0 0 0 11 0 0 0
951 949 762 934 671 520 370 249 79 0 0 0 0 0 0 0 0 10 3 0 0 0
536 383 507 758 381 145 7 0 0 0 0 0 0 0 0 0 0 0 0 0 0 0
113 256 240 245 105 8 0 0 0 0 0 0 0 0 0 0 0 0 0 0 0 0
156 150 5 0 0 0 0 0 3 0 0 0 0 0 0 0 0 0 0 0 0 0
60 0 0 0 0 0 0 0 0 0 0 0 0 0 0 0 0 0 0 0 0 0

GFSNIL_con_mucape_276.txt.gz
CAPE
2224 1739 1467 1248 705 41 45 69 94 178 67 6 0 0 87 67 74 120 116 135 79 32
1842 1567 1184 20 14 26 26 157 313 111 12 0 0 1 8 0 0 0 0 8 54 97
1768 1197 38 11 41 28 78 271 147 61 0 0 0 5 0 0 0 0 0 0 0 0
1100 298 152 13 65 118 376 253 100 56 30 1 0 0 0 0 0 0 0 0 0 0
703 128 108 74 146 548 445 329 145 122 58 50 0 0 0 0 0 0 0 0 0 0
322 177 462 779 716 640 638 525 335 69 66 7 0 0 0 2 0 0 0 0 0 0
938 1007 930 708 651 617 752 663 344 26 0 0 14 0 3 0 0 0 0 0 0 0
1197 846 657 628 667 687 358 104 12 0 0 0 0 0 0 0 0 0 0 0 0 0
781 697 580 652 397 285 162 8 0 0 0 0 0 0 0 0 0 0 0 0 0 0
770 393 531 429 371 202 53 0 0 0 0 0 0 0 0 0 0 0 0 0 0 0
577 424 302 84 33 21 0 0 0 0 0 0 0 0 0 0 0 0 0 0 0 0
112 124 11 0 0 0 0 0 0 0 0 0 0 0 0 0 0 0 0 0 0 0
30 0 0 0 0 0 0 0 0 0 0 0 0 0 0 0 0 0 0 0 0 0
1 0 0 0 0 0 0 0 0 0 0 0 0 0 0 0 0 0 0 0 0 0

GFSNIL_con_mucape_279.txt.gz
CAPE
1870 1945 1386 1142 871 9 6 68 115 2 0 0 0 22 0 0 0 0 0 0 0 2
2134 1655 1390 1045 10 3 62 248 102 0 0 0 7 0 0 0 0 0 0 0 0 0
1860 1436 380 4 19 84 230 281 128 8 0 0 0 0 0 0 0 0 0 0 0 0
1657 384 0 18 102 166 313 407 159 75 22 9 0 0 0 0 0 0 0 0 0 0
1265 247 6 27 118 540 530 406 171 81 41 0 0 0 0 0 0 0 0 0 0 0
521 106 49 199 661 655 592 457 187 11 0 0 0 0 0 2 0 0 0 0 0 0
215 445 744 702 604 614 582 334 85 7 0 0 0 0 0 0 0 0 0 0 0 0
723 838 591 602 589 402 277 112 68 17 0 0 0 0 0 0 0 0 0 0 0 0
820 611 654 596 351 192 136 95 31 0 0 0 0 0 0 0 0 0 0 0 0 0
676 644 537 325 154 95 22 0 0 0 0 0 0 0 0 0 0 0 0 0 0 0
447 399 307 162 5 0 0 0 0 0 0 0 0 0 0 0 0 0 0 0 0 0
474 313 50 0 0 0 0 0 0 0 0 0 0 0 0 0 0 0 0 0 0 0
355 42 0 0 0 0 0 0 0 0 0 0 0 0 0 0 0 0 0 0 0 0
144 0 0 0 0 0 0 0 0 0 0 0 0 0 0 0 0 0 0 0 0 0

GFSNIL_con_mucape_285.txt.gz
CAPE
2714 2323 1866 1485 716 289 102 347 500 223 149 228 289 0 0 0 0 0 0 0 1 8
2572 2291 1561 907 547 336 643 676 576 298 161 236 103 0 0 0 0 0 0 0 0 0
2658 2216 1568 840 517 610 838 1028 720 448 260 344 250 0 0 0 0 0 0 0 2 1
2707 2027 1269 711 488 787 1090 1072 789 596 590 472 346 12 0 0 2 2 0 2 2 2
1939 1638 990 344 551 874 1010 792 738 672 413 126 25 2 1 3 8 2 0 2 9 8
1435 1150 322 430 721 1054 1097 765 361 85 32 1 2 2 0 0 0 0 0 0 4 9
1106 499 255 795 1245 1217 748 216 98 36 2 0 0 0 0 0 0 0 0 0 0 5
394 344 961 1236 1095 400 212 68 52 9 0 0 0 0 0 0 0 0 0 0 0 0
201 466 1056 504 421 263 118 15 0 0 0 0 0 0 0 0 0 0 0 0 0 0
711 564 423 425 308 171 79 6 0 0 0 0 0 0 0 0 0 0 0 0 0 0
802 535 506 357 208 99 71 0 0 0 0 0 0 0 0 0 0 0 0 0 0 0
737 547 396 231 144 158 4 0 0 0 0 0 0 0 0 0 0 0 0 0 0 0
728 544 275 152 158 14 0 0 0 0 0 0 0 0 0 0 0 0 0 0 0 0
564 379 188 136 5 0 0 0 0 0 0 0 0 0 0 0 0 0 0 0 0 0

GFSNIL_con_mucape_291.txt.gz
CAPE
3199 2802 2461 2665 2279 1076 250 486 1026 652 651 717 510 309 381 396 84 235 60 27 21 0
3583 3252 2797 2791 2314 613 574 1228 1153 784 688 532 479 339 454 457 293 441 152 35 17 10
3263 3128 2966 2868 2035 670 1184 1858 1556 1116 691 672 1043 628 840 544 266 92 13 6 22 15
3036 2976 3336 2465 1169 1223 1637 1871 1803 1535 1243 797 751 622 501 186 93 8 11 8 13 14
3152 3494 2638 2201 1077 1507 1902 1945 1813 1458 1100 893 794 267 72 11 5 5 3 0 0 2
2962 2812 2521 1956 1049 1480 1980 2364 1524 1698 1157 474 124 1 0 3 7 3 0 0 0 0
3698 3242 2289 1896 2092 2057 2104 1706 1063 807 422 52 0 0 0 0 0 0 0 0 0 0
3491 3089 2466 1593 2644 1688 1602 922 567 150 0 0 0 0 0 0 0 0 0 0 0 0
2230 1718 1285 851 1238 830 536 173 33 4 0 0 0 0 0 0 0 0 0 0 0 0
1255 764 691 396 353 97 48 41 34 26 0 0 0 0 0 0 0 0 0 0 0 0
916 886 513 246 96 8 33 44 26 0 0 0 0 0 0 0 0 0 0 0 0 0
1049 936 470 231 137 31 1 0 20 0 0 0 0 0 0 0 0 0 0 0 0 0
1429 1064 685 493 312 47 0 0 0 0 0 0 0 0 0 0 0 0 0 0 1 0
1094 1000 693 483 302 3 11 3 0 0 0 0 0 0 0 0 0 0 0 0 1 5